Location: Newark
(52.1752°N, 10.4140°W)
Time: 17:55:33
(UTC+00:00)

N. Korean satellite - Pass Details

Date: 16 November 2019
Orbit: 455 x 507 km, 97.2° (Epoch: 14 December)

Event Time Altitude Azimuth Distance (km) Brightness Sun altitude
Rises 05:48:55 0° 24° (NNE) 2,627 10.5 -20.3°
Reaches altitude 10° 05:51:23 10° 40° (NE) 1,733 9.8 -19.9°
Maximum altitude 05:54:20 22° 92° (E) 1,158 9.4 -19.5°
Drops below altitude 10° 05:57:14 10° 144° (SE) 1,711 9.9 -19.1°
Sets 05:59:39 0° 161° (SSE) 2,582 10.6 -18.7°
